Regional Weather Roundup
Issued by NWS

Home | Current Version | Previous Version | Graphics & Text | Print | Product List | Glossary On
Versions: 1 2 3 4 5 6 7 8 9 10 11 12 13 14 15 16 17 18 19 20 21 22 23 24 25 26 27 28 29 30 31 32 33 34 35 36 37 38 39 40 41 42 43 44 45 46 47 48 49 50
000
ASUS43 KLOT 222210
RWRIL

ILLINOIS REGIONAL WEATHER ROUNDUP
NATIONAL WEATHER SERVICE CHICAGO/ROMEOVILLE IL
500 PM CDT MON SEP 22 2014

NOTE: "FAIR" INDICATES FEW OR NO CLOUDS BELOW 12,000 FEET WITH NO
SIGNIFICANT WEATHER AND/OR OBSTRUCTIONS TO VISIBILITY.

* THESE STATIONS ARE NOT UNDER NWS QUALITY CONTROL. THEY ALSO MAY NOT
  REPORT WEATHER SUCH AS PRECIPITATION OR FOG.

ILZ001-002-007-009-015-016-024-222300-
NORTHWEST ILLINOIS

CITY           SKY/WX    TMP DP  RH WIND       PRES   REMARKS
MOLINE         SUNNY     69  45  41 S6        30.24F
STERLING*      SUNNY     70  45  40 NW3       30.23F
SAVANNA*       SUNNY     69  43  38 CALM      30.23F
$$

ILZ003-004-008-010-011-017-018-222300-
NORTH CENTRAL ILLINOIS

CITY           SKY/WX    TMP DP  RH WIND       PRES   REMARKS
ROCKFORD       SUNNY     69  44  40 VRB6      30.24F
FREEPORT*      SUNNY     66  44  43 W6        30.25F
ROCHELLE*      SUNNY     68  44  41 W5        30.24F
DE KALB*       SUNNY     64  44  47 CALM      30.24F
PERU*          SUNNY     69  42  38 NW3       30.24F
$$

ILZ005-006-012>014-019>023-222300-
NORTHEAST ILLINOIS

CITY           SKY/WX    TMP DP  RH WIND       PRES   REMARKS
CHICAGO-OHARE  SUNNY     67  41  38 W5        30.23S
CHICAGO-MIDWAY SUNNY     66  45  46 SE7       30.23F
AURORA         SUNNY     68  43  40 N5        30.24S
LANSING*       SUNNY     63  44  49 E6        30.24S
JOLIET*        SUNNY     65  40  38 N5        30.24F
WAUKEGAN       SUNNY     66  45  46 CALM      30.21F
DUPAGE AIRPORT SUNNY     69  43  38 VRB3      30.23F
KANKAKEE*      SUNNY     66  45  46 CALM      30.24S
WHEELING       SUNNY     67  43  41 CALM      30.24F
MORRIS*        SUNNY     69  44  40 CALM      30.23F
ROMEOVILLE*    SUNNY     66  42  41 NW3       30.24S
NORTHERLY ISL    N/A     60  45  57 SE7         N/A
$$

LMZ740>746-222300-
SOUTHERN LAKE MICHIGAN

STATION/POSITION SKY/WX   TEMP    WIND        PRES    VSBY  WAVE
                          AIR SEA DIR/SP/G                  HT/PER
                          (F)     (DEG/KT/KT) (MB)    (MI)  (FT/S)
SOUTHERN BUOY              59 62  200/  8/ 10 1023.8F         2/ 6
WAUKEGAN HARBOR            63     170/ 12/ 12   N/A
HARRISON CRIB              58     120/  8/ 10   N/A
BURNHAM HARBOR             60     110/  6/  8   N/A
CALUMET HARBOR             59      70/  6/  9 1022.9S
MICHIGAN CITY              60     310/  4/  5   N/A
MICHIGAN CITY 6N           58 64   20/  2/  4   N/A           3/ 5
ST. JOSEPH                 58 65  290/  6/  8   N/A           2/ 6
$$

ILZ025>027-034>036-040-047-049-050-058-095>099-222300-
WEST-CENTRAL ILLINOIS

CITY           SKY/WX    TMP DP  RH WIND       PRES   REMARKS
QUINCY         SUNNY     72  41  32 CALM      30.23F
GALESBURG*     SUNNY     73  47  39 CALM      30.25S
MACOMB*        SUNNY     71  41  34 NE5       30.26F
JACKSONVILLE*  SUNNY     73  42  32 NW3       30.25F
PITTSFIELD*    SUNNY     73  41  32 CALM      30.25F
$$

ILZ028>032-037-038-041>044-048-051>054-059>061-222300-
CENTRAL ILLINOIS

CITY           SKY/WX    TMP DP  RH WIND       PRES   REMARKS
PONTIAC        SUNNY     70  43  37 NW9       30.24S
DECATUR        SUNNY     71  44  37 NE5       30.24F
PEORIA         SUNNY     72  44  36 N3        30.24F
LACON*         SUNNY     67  42  40 NE3       30.24F
LINCOLN*       SUNNY     72  39  30 N3        30.21F
SPRINGFIELD    SUNNY     73  43  33 VRB5      30.24F
TAYLORVILLE    SUNNY     70  39  32 NW5       30.24S
$$

ILZ033-039-045-046-055>057-062-063-222300-
EAST-CENTRAL ILLINOIS

CITY           SKY/WX    TMP DP  RH WIND       PRES   REMARKS
CHAMPAIGN      SUNNY     69  43  38 CALM      30.24F
DANVILLE*      SUNNY     68  44  42 NW3       30.21S
RANTOUL*       SUNNY     70  39  32 NW3       30.24F
MATTOON        SUNNY     70  41  34 N6        30.22F
PARIS*         SUNNY     69  45  42 N5        30.24S
$$

ILZ079-100>102-222300-
SOUTHWEST ILLINOIS

CITY           SKY/WX    TMP DP  RH WIND       PRES   REMARKS
ALTON          SUNNY     72  36  26 W6        30.23
BELLEVILLE     SUNNY     74  47  37 NW6       30.22F
CAHOKIA*       SUNNY     74  47  38 N6        30.23F
SPARTA*        SUNNY     72  47  40 N6        30.23F
$$

ILZ064>066-069>071-074>076-080>082-084>086-088>090-092>094-222300-
SOUTH-CENTRAL ILLINOIS

CITY           SKY/WX    TMP DP  RH WIND       PRES   REMARKS
CARBONDALE     SUNNY     72  46  39 N7        30.22F
CAIRO*         SUNNY     74  47  38 N7        30.20F
EFFINGHAM*     SUNNY     71  40  32 NE5       30.23F
MARION         SUNNY     72  43  35 N12       30.22F
MT. VERNON     SUNNY     70  46  43 N3        30.24S
CENTRALIA*     SUNNY     71  44  36 N5        30.23F
SALEM*         SUNNY     71  48  43 N7        30.23F
METROPOLIS*    SUNNY     73  45  37 NE8       30.20F
$$

ILZ067-068-072-073-078-083-087-091-222300-
SOUTHEAST ILLINOIS

CITY           SKY/WX    TMP DP  RH WIND       PRES   REMARKS
LAWRENCEVILLE  SUNNY     71  45  39 N6        30.22F
FLORA*         SUNNY     71  42  35 N8        30.23F
FAIRFIELD*     SUNNY    N/A N/A N/A N7        30.22F
HARRISBURG*    SUNNY     71  44  38 N6        30.23S
ROBINSON*      SUNNY     70  48  45 N6        30.23F
CARMI*         SUNNY     74  45  36 N6        30.22S
$$

ABBREVIATIONS USED IN REMARKS
   TC - TEMPERATURE IN CELSIUS
  WCI - WIND CHILL INDEX
   HX - HEAT INDEX
  VSB - VISIBILITY
$$




USA.gov is the U.S. government's official web portal to all federal, state and local government web resources and services.